Location: ???????
(52.7833°N, 53.7500°E)
Time: 02:28:21
(UTC+00:00)

Daily predictions for brighter satellites

Satellite Brightness Start Highest point End
(mag) Time Altitude Azimuth Time Altitude Azimuth Time Altitude Azimuth
ATLAS 5 CENTAUR R/B 3.9 00:05:27 68° W 00:06:42 78° SW 00:33:55 10° SE
SL-16 R/B 4.4 00:11:52 14° N 00:11:52 14° N 00:13:56 10° NNE
ADEOS 4.2 00:06:15 10° NNE 00:10:46 52° ENE 00:10:46 52° ENE
Cosmos 1821 Rocket 4.1 00:11:32 71° ESE 00:11:37 71° E 00:17:45 10° NNE
Cosmos 2082 Rocket 4.2 00:12:46 10° SSE 00:17:21 25° ESE 00:21:57 10° NE
Cosmos 1680 Rocket 4.4 00:16:26 42° NNE 00:17:21 46° NE 00:22:27 10° SE
Meteor 2-12 Rocket 4.3 00:34:15 77° NW 00:34:15 77° NW 00:40:13 10° N
Cosmos 2285 Rocket 4.0 00:37:14 65° NW 00:37:14 65° NW 00:43:23 10° NNE
Cosmos 2221 4.0 00:40:33 31° SSE 00:40:33 31° SSE 00:42:53 10° SSE
Cosmos 1833 Rocket 3.4 00:37:39 23° S 00:40:51 50° ESE 00:46:15 10° NE
Cosmos 923 Rocket 3.9 00:40:56 80° NE 00:41:03 81° ENE 00:46:17 10° SSE
Lacrosse 5 rocket 2.9 00:45:01 28° NE 00:45:01 28° NE 00:46:55 10° ENE
SL-16 R/B 3.6 00:40:32 18° NNW 00:44:07 34° NE 00:49:16 10° ESE
Cosmos 2237 Rocket 4.5 00:43:06 11° NNW 00:44:49 12° N 00:47:11 10° NNE
CZ-4B R/B 4.2 00:43:51 10° NNE 00:47:11 34° E 00:48:31 25° SE
Cosmos 2360 Rocket 4.2 00:44:31 12° NNW 00:48:20 23° NNE 00:52:47 10° E
Cosmos 1461 3.6 00:50:36 47° ENE 00:50:36 47° ENE 00:53:34 10° NE
Meteor 2-2 Rocket 4.4 00:46:50 10° N 00:52:31 73° ENE 00:58:08 10° SSE
COSMO-SKYMED 1 3.7 00:48:51 10° SE 00:52:57 43° ENE 00:57:05 10° N
Cosmos 1356 Rocket 4.3 00:51:51 22° N 00:54:23 50° ENE 00:58:34 10° SSE
Cosmos 1980 Rocket 2.1 00:53:19 45° NNW 00:55:11 86° ENE 01:00:54 10° SSE
Cosmos 2322 Rocket 3.6 00:52:17 16° NNW 00:56:18 35° NE 01:01:28 10° ESE
COSMOS 2455 3.6 00:56:29 25° NNW 00:59:50 50° NE 01:05:41 10° ESE
IDEFIX/ARIANE 42P 2.9 00:57:06 10° N 01:01:20 49° NNW 01:01:20 49° NNW
Okean O Rocket 4.4 01:00:03 10° NE 01:03:10 19° E 01:06:15 10° SE
SJ 16-02 3.9 01:00:44 10° SSE 01:04:05 22° E 01:07:27 10° NE
ATLAS 2AS CENTAUR R/B 3.3 01:02:01 25° NW 01:06:50 60° NNE 01:14:05 10° ESE
MSX 3.7 01:01:56 10° NNE 01:07:41 73° WNW 01:11:15 24° SSW
Cosmos 2369 4.1 01:10:17 44° SW 01:10:17 44° SW 01:15:02 10° S
Meteor 1-27 4.2 01:05:08 10° NNW 01:10:56 67° W 01:16:44 10° S
SL-4 R/B 2.3 01:11:55 65° WSW 01:12:34 79° S 01:17:26 10° E
NOSS 2-1 (C) 3.9 01:13:25 43° N 01:13:25 43° N 01:16:45 10° NE
ADEOS II 4.2 01:12:51 10° NNW 01:13:31 12° NNW 01:13:31 12° NNW
NOSS 2-1 (D) 3.8 01:16:48 43° N 01:16:48 43° N 01:20:14 10° NE
Cosmos 2333 Rocket 4.3 01:13:04 10° NNW 01:17:08 19° NNE 01:21:11 10° ENE
Cosmos 1934 Rocket 3.9 01:12:55 10° SSW 01:19:09 64° WNW 01:25:31 10° N
Cosmos 2360 4.2 01:18:00 42° WNW 01:19:40 58° WSW 01:25:15 10° S
NOSS 2-2 (E) 4.5 01:17:37 36° NW 01:20:17 83° SW 01:28:03 10° SE
STARLINK-46 3.6 01:23:04 51° E 01:23:04 51° E 01:25:26 10° E
Cosmos 1447 Rocket 4.4 01:16:47 10° NNW 01:23:10 82° W 01:29:31 10° S
CZ-4C R/B 2.8 01:22:11 38° WNW 01:23:37 45° NNW 01:29:58 10° NE
Meteor 1-31 Rocket 2.6 01:21:04 10° NNE 01:24:55 84° WNW 01:27:01 26° SSW
H-2A R/B 2.6 01:20:44 10° N 01:25:10 58° WNW 01:26:05 47° WSW
CZ-2C R/B 2.3 01:21:37 10° NNE 01:26:37 71° WNW 01:31:24 10° SSW
ASTEX 1 3.3 01:24:28 10° S 01:29:23 65° W 01:34:22 10° N
Cosmos 1869 3.1 01:27:51 31° NNW 01:29:39 79° W 01:33:34 10° S
Cosmos 2278 4.0 01:29:19 38° W 01:30:27 43° WSW 01:35:48 10° S
Cosmos 1484 Rocket 3.3 01:28:32 10° NNE 01:32:30 62° E 01:36:29 10° S
Lacrosse 5 2.8 01:28:30 14° SSW 01:32:33 46° SE 01:37:24 10° ENE
Meteor PRIRODA 3.6 01:31:32 10° NNE 01:35:15 84° ESE 01:38:56 10° SSW
Cosmos 1697 Rocket 3.4 01:36:06 32° WSW 01:36:06 32° WSW 01:40:50 10° SSW
USA 234 3.4 01:31:44 10° E 01:38:14 70° NNE 01:42:14 25° WNW
SKYMED 2 3.4 01:36:42 10° S 01:41:02 71° WSW 01:45:23 10° NNW
Cosmos 2123 Rocket 4.5 01:35:35 10° NNW 01:41:05 35° W 01:46:35 10° SSW
Cosmos 2219 Rocket 4.2 01:38:17 10° NNW 01:42:38 22° NNE 01:46:59 10° E
USA 116 3.3 01:39:39 10° SSE 01:42:49 80° ENE 01:45:44 14° NNW
COSMOS 2406 3.6 01:41:04 31° W 01:43:06 42° NW 01:48:36 10° NNE
Meteor 1-11 4.4 01:39:49 10° SW 01:45:21 49° WNW 01:51:01 10° N
Cosmos 1153 Rocket 4.4 01:39:28 10° S 01:45:37 86° W 01:51:49 10° N
PAYLOAD A 4.4 01:43:15 10° N 01:48:12 44° WNW 01:53:16 10° SW
Cosmos 1328 Rocket 4.3 01:44:38 10° N 01:48:56 54° ENE 01:53:10 10° SSE
Cosmos 2084 Rocket 3.5 01:47:05 21° SW 01:50:02 90° ENE 01:54:31 10° NE
ADEOS 4.4 01:46:13 10° N 01:50:41 29° WNW 01:51:33 28° WNW
Meteor 2-20 Rocket 4.4 01:44:36 10° NNW 01:50:48 78° W 01:56:57 10° S
Cosmos 2112 Rocket 4.3 01:48:08 22° NW 01:51:15 46° WSW 01:56:18 10° S
BREEZE-M DEB (TANK) 2.5 01:50:57 28° SW 01:51:50 37° S 01:53:46 10° ESE
CZ-4B R/B 4.3 01:48:18 10° N 01:52:37 50° WNW 01:56:58 10° SW
Cosmos 1892 3.3 01:50:28 10° S 01:54:12 58° E 01:57:56 10° NNE
SL-16 R/B 4.4 01:54:55 10° NNW 01:57:32 13° N 02:00:09 10° NE
Helios 1A Rocket 3.6 01:54:21 10° NNE 01:58:26 57° ESE 02:02:28 10° S
Cosmos 1680 Rocket 4.1 01:56:49 22° NW 01:59:23 35° WSW 02:04:09 10° SSW
Cosmos 1151 Rocket 3.5 01:55:49 10° N 02:00:12 64° ENE 02:04:33 10° SSE
PSLV R/B 3.6 01:56:36 10° N 02:00:22 65° WNW 02:04:13 10° SSW
Cosmos 1605 Rocket 4.1 01:54:27 10° SSW 02:00:28 49° WNW 02:06:26 10° N
Cosmos 2082 Rocket 2.2 01:55:15 10° SW 02:00:58 71° NW 02:06:42 10° NNE
METEOR-M 4.4 01:55:39 10° NNE 02:01:00 71° ESE 02:06:20 10° S
NOSS 2-1 (E) 4.2 02:00:11 27° NW 02:01:15 32° NNW 02:05:16 10° NE
Cosmos 2173 Rocket 4.2 01:55:15 10° S 02:01:31 78° E 02:07:44 10° NNE
In-Cosmos 22 Rocket 4.2 01:57:26 10° S 02:02:48 82° E 02:08:18 10° NNE
STARLINK-52 3.9 02:03:27 17° SW 02:05:56 50° SSE 02:09:21 10° E
DMSP B5D1-3 4.5 02:02:27 10° SSE 02:07:35 83° WSW 02:12:46 10° NNW
Cosmos 1076 Rocket 3.7 02:03:40 10° SSW 02:07:52 46° WNW 02:12:05 10° N
COSMOS 2428 4.4 02:04:35 10° NNW 02:09:30 28° NE 02:14:24 10° E
Cosmos 1408 3.7 02:07:27 10° S 02:11:02 47° E 02:14:36 10° NNE
Okean 3 Rocket 3.6 02:07:43 10° SSW 02:12:15 85° W 02:16:48 10° N
Cosmos 839 Rocket 4.1 02:05:32 10° SW 02:12:32 81° NW 02:18:45 10° NE
ADEOS Rocket 4.3 02:05:47 10° SE 02:13:18 55° ENE 02:20:30 10° N
Cosmos 1408 Rocket 4.3 02:09:57 10° S 02:14:10 55° E 02:18:25 10° NNE
Cosmos 2221 4.4 02:17:31 13° WSW 02:17:31 13° WSW 02:18:27 10° SW
NOSS 3-4 (A) 3.8 02:11:25 13° NW 02:17:41 88° NE 02:25:16 10° SE
NOSS 3-4 (C) 3.8 02:11:31 13° NW 02:17:47 88° NE 02:25:22 10° SE
Cosmos 2058 3.2 02:14:30 10° SSW 02:18:34 46° WNW 02:22:39 10° N
STARLINK-29 3.6 02:17:49 14° WSW 02:20:42 61° SSE 02:24:09 10° E
CZ-4B R/B 3.7 02:19:15 10° N 02:22:13 24° WNW 02:24:37 13° WSW
Lacrosse 5 rocket 1.7 02:20:41 19° WNW 02:22:54 42° N 02:26:21 10° E
Cosmos 1766 Rocket 3.4 02:20:08 10° SSW 02:24:27 82° W 02:28:51 10° N
Cosmos 1833 Rocket 3.1 02:19:41 10° WSW 02:24:56 40° NW 02:30:14 10° NNE
Cosmos 1825 3.2 02:21:24 10° S 02:25:03 49° E 02:28:43 10° NNE
SL-16 R/B 2.3 02:22:59 10° NW 02:28:36 62° WSW 02:34:11 10° SSE
Cosmos 1461 3.9 02:27:01 17° WNW 02:29:04 26° NNW 02:32:30 10° NNE
COSMO-SKYMED 1 3.5 02:25:37 10° SSW 02:29:17 26° W 02:32:59 10° NW
Cosmos 990 Rocket 3.9 02:24:24 10° SSW 02:29:35 72° WNW 02:34:49 10° NNE
NOSS 3-3 (A) 4.3 02:23:36 10° SW 02:29:42 76° SE 02:36:37 10° NE
NOSS 3-3 (C) 4.3 02:23:49 10° SW 02:29:49 75° SE 02:36:40 10° NE
Cosmos 2237 Rocket 4.1 02:26:52 10° NNW 02:31:13 22° NNE 02:35:33 10° E
SL-27 R/B 2.4 02:28:23 10° SW 02:31:38 53° WNW 02:34:55 10° NNE
deb Kosmos-1763 4.1 02:28:32 10° SW 02:32:12 57° WNW 02:35:53 10° NNE
ALOS 2.2 02:27:56 10° N 02:32:35 64° WNW 02:37:11 10° SSW
SJ-12 4.2 02:28:49 10° N 02:32:48 46° WNW 02:36:46 10° SW
Cosmos 2360 Rocket 2.4 02:27:35 10° NNW 02:33:19 75° ENE 02:39:00 10° SE
MOS 1-B 4.4 02:29:17 10° N 02:34:58 56° WNW 02:40:37 10° SW
STARLINK-60 3.1 02:33:21 12° WSW 02:36:25 79° SSE 02:39:48 10° E
Cosmos 2228 Rocket 3.5 02:32:49 10° N 02:37:24 70° ENE 02:41:59 10° SSE
STARLINK-67 2.5 02:36:31 17° W 02:38:24 71° SSW 02:41:02 10° ESE
Cosmos 1980 Rocket 3.5 02:35:08 12° WNW 02:38:29 20° W 02:42:30 10° SW
Okean O Rocket 1.6 02:35:37 10° N 02:39:56 62° WNW 02:44:13 10° SSW
FALCON 9 DEB 3.2 02:37:08 10° WSW 02:40:35 76° SSE 02:44:01 10° E
Cosmos 2322 Rocket 2.3 02:35:07 10° NW 02:40:40 59° WSW 02:46:13 10° SSE
IDEFIX/ARIANE 42P 4.3 02:38:35 10° NNW 02:40:44 13° NW 02:42:08 11° WNW
SMAP 3.9 02:37:17 10° NNE 02:41:53 55° E 02:46:27 10° S
SJ 16-02 1.4 02:38:02 10° SW 02:42:20 54° WNW 02:46:40 10° NNE
Cosmos 2346 Rocket 4.4 02:37:21 10° NNW 02:43:27 70° W 02:49:28 10° S
COSMOS 2455 3.2 02:40:05 10° NW 02:45:48 46° WSW 02:51:29 10° S
Cosmos 1725 Rocket 4.1 02:40:27 10° S 02:46:42 90° ESE 02:53:04 10° N
Cosmos 1782 4.1 02:44:27 10° N 02:48:18 43° ENE 02:52:07 10° SE
Gbstr 26 Del rocket 3.9 02:44:47 10° SW 02:48:20 41° SSE 02:51:55 10° E
Cosmos 1459 Rocket 4.1 02:44:18 10° SSW 02:50:20 53° WNW 02:56:30 10° N
Cosmos 1898 Rocket 3.7 02:46:13 10° SW 02:51:19 50° WNW 02:56:29 10° NNE
Cosmos 2016 Rocket 4.0 02:46:01 10° SSW 02:52:14 70° WNW 02:58:35 10° N
SL-4 R/B 2.7 02:47:31 10° W 02:52:15 59° SSW 02:56:57 10° ESE
Tsikada Rocket 4.1 02:46:53 10° NNW 02:53:17 70° W 02:59:36 10° S
Meteor 1-26 Rocket 4.3 02:48:30 10° NNW 02:54:22 89° ENE 03:00:02 10° SSE
CZ-4 R/B 4.1 02:53:12 10° NE 02:56:22 23° E 02:59:30 10° SSE
ATLAS 2AS CENTAUR R/B 3.2 02:50:24 10° NW 02:57:52 53° WSW 03:04:45 10° SSE
STARLINK-46 2.7 02:55:11 10° W 02:58:10 88° N 03:01:10 10° E
Cosmos 2151 3.5 02:55:03 10° SW 02:59:04 37° WNW 03:03:06 10° N
Cosmos 2150 Rocket 4.4 02:54:46 10° SSW 03:00:13 75° ESE 03:05:39 10° NNE
Cosmos 2322 4.0 02:54:31 10° NNW 03:00:15 74° NE 03:05:56 10° SE
IRS-1C Rocket 4.3 02:56:22 10° NNE 03:01:42 83° ESE 03:06:59 10° SSW
NOAA 6 4.2 02:57:34 10° N 03:02:32 50° WNW 03:07:27 10° SW
Cosmos 2333 Rocket 3.0 02:57:05 10° NNW 03:02:46 53° NE 03:08:24 10° SE
Cosmos 1400 Rocket 2.9 02:58:36 10° NNW 03:02:46 83° WSW 03:06:50 10° S
CZ-2C R/B 4.0 03:01:14 10° NNW 03:03:58 15° NW 03:06:41 10° W
Envisat 4.2 03:01:21 10° NNE 03:06:17 48° E 03:11:11 10° S
Cosmos 2100 Rocket 4.4 03:00:33 10° SW 03:06:20 40° WNW 03:12:06 10° N
CZ-4B R/B 3.4 03:01:19 10° N 03:06:27 49° WNW 03:11:38 10° SW
Cosmos 1484 Rocket 4.3 03:03:48 10° NNW 03:06:32 18° WNW 03:09:18 10° WSW
Cosmos 1937 Rocket 3.7 03:02:06 10° SW 03:07:06 49° WNW 03:12:07 10° NNE
STARLINK-43 4.1 03:05:25 10° SW 03:09:04 55° SSE 03:12:44 10° E
ATLAS CENTAUR R/B 3.2 03:05:49 10° SSW 03:10:27 44° SE 03:14:59 10° NE
